Disclaimer

Please do not use the information listed here in-flight or in-navigation, as they are not provided to us by the airports but are provided by volunteers, so they might be outdated.

Search


Regions


Airport information page

Radio informations:
Tower (TWR) - 125.5 MHz
Ground (GND) - 133.0 MHz
GCA - 122.6 MHz
Clearance delivery - 119.75 MHz
Approach (APP) - 120.8 MHz
METRO - 253.2 MHz

Airport informations:
Latitude: 31° 30' 20.72" N
Longitude: 065° 50' 52.16" E
Elevation: 3337 feet - 1017 meters
Operating hours: N/A
Operating agency: Military-civil joint use airport
Timezone: UTC+4:30
Fuel: JP-8, SemiKeroscene MIL Spec T-83133, without icing inhibitor

Runway information:
05/23 - 10532 x 148 feet< - >3210 x 45 meters

Recent METARs:
OAKN 171255Z 35003KT 9999 FEW150 19/M06 A2999 RMK AO2A Q1015 PA3240 DA4468 SLP131 WND DATA ESTMD T01871063
OAKN 171355Z 02005KT 9999 SCT140 18/M07 A3000 RMK AO2A SLP137 WND DATA ESTMD Q1015 PA3231 DA4325 T01791066
OAKN 171456Z 05006KT 9999 FEW140 BKN160 16/M08 A3000 RMK AO2A SLP141 WND DATA ESTMD Q1015 PA3234 DA4152 T01621078 54000

Airport on the map: